Time,TemperatureF,DewpointF,PressureIn,WindDirection,WindDirectionDegrees,WindSpeedMPH,WindSpeedGustMPH,Humidity,HourlyPrecipIn,Conditions,Clouds,dailyrainin,SoftwareType,DateUTC
2013-05-10 00:13:00,57.9,57.0,29.88,SSW,192,0.0,0.0,95,0.00,,,0.00,weatherlink.com 1.10,2013-05-10 04:13:00,
2013-05-10 00:28:00,58.0,57.0,29.89,SSW,213,0.0,1.0,96,0.00,,,0.00,weatherlink.com 1.10,2013-05-10 04:28:00,
2013-05-10 00:43:00,57.8,56.0,29.88,WSW,245,0.0,1.0,95,0.00,,,0.00,weatherlink.com 1.10,2013-05-10 04:43:00,
2013-05-10 00:58:00,57.8,57.0,29.88,SW,232,0.0,1.0,96,0.00,,,0.00,weatherlink.com 1.10,2013-05-10 04:58:00,
2013-05-10 01:13:00,57.8,57.0,29.88,SW,232,0.0,0.0,96,0.00,,,0.00,weatherlink.com 1.10,2013-05-10 05:13:00,
2013-05-10 01:28:00,57.8,57.0,29.88,SW,221,0.0,0.0,96,0.00,,,0.00,weatherlink.com 1.10,2013-05-10 05:28:00,
2013-05-10 01:43:00,57.6,57.0,29.88,SW,221,0.0,1.0,96,0.00,,,0.00,weatherlink.com 1.10,2013-05-10 05:43:00,
2013-05-10 01:58:00,57.6,57.0,29.89,SW,229,0.0,3.0,96,0.00,,,0.00,weatherlink.com 1.10,2013-05-10 05:58:00,
2013-05-10 02:13:00,57.6,57.0,29.89,SW,217,0.0,1.0,96,0.00,,,0.00,weatherlink.com 1.10,2013-05-10 06:13:00,
2013-05-10 02:28:00,57.5,56.0,29.89,SW,226,0.0,0.0,96,0.00,,,0.00,weatherlink.com 1.10,2013-05-10 06:28:00,
2013-05-10 02:43:00,57.3,56.0,29.89,SW,226,0.0,0.0,96,0.00,,,0.00,weatherlink.com 1.10,2013-05-10 06:43:00,
2013-05-10 02:58:00,57.0,56.0,29.88,SW,226,0.0,0.0,96,0.00,,,0.00,weatherlink.com 1.10,2013-05-10 06:58:00,
2013-05-10 03:13:00,56.6,56.0,29.89,SW,226,0.0,0.0,96,0.01,,,0.01,weatherlink.com 1.10,2013-05-10 07:13:00,
2013-05-10 03:28:00,56.0,55.0,29.88,SW,226,0.0,0.0,96,0.01,,,0.01,weatherlink.com 1.10,2013-05-10 07:28:00,
2013-05-10 03:43:00,56.0,55.0,29.89,SW,226,0.0,0.0,96,0.01,,,0.01,weatherlink.com 1.10,2013-05-10 07:43:00,
2013-05-10 03:58:00,56.0,55.0,29.89,SW,225,0.0,1.0,96,0.01,,,0.01,weatherlink.com 1.10,2013-05-10 07:58:00,
2013-05-10 04:13:00,55.8,55.0,29.89,SW,225,0.0,1.0,96,0.00,,,0.01,weatherlink.com 1.10,2013-05-10 08:13:00,
2013-05-10 04:28:00,55.5,54.0,29.89,SW,215,0.0,2.0,96,0.00,,,0.01,weatherlink.com 1.10,2013-05-10 08:28:00,
2013-05-10 04:43:00,55.4,54.0,29.90,SW,225,0.0,1.0,96,0.00,,,0.01,weatherlink.com 1.10,2013-05-10 08:43:00,
2013-05-10 04:58:00,55.4,54.0,29.90,SW,225,0.0,0.0,96,0.00,,,0.01,weatherlink.com 1.10,2013-05-10 08:58:00,
2013-05-10 05:13:00,55.1,54.0,29.90,SW,224,0.0,0.0,96,0.00,,,0.01,weatherlink.com 1.10,2013-05-10 09:13:00,
2013-05-10 05:28:00,54.9,54.0,29.91,SW,226,0.0,1.0,96,0.00,,,0.01,weatherlink.com 1.10,2013-05-10 09:28:00,
2013-05-10 05:43:00,54.9,54.0,29.91,West,269,0.0,1.0,96,0.00,,,0.01,weatherlink.com 1.10,2013-05-10 09:43:00,
2013-05-10 05:58:00,54.6,54.0,29.91,WSW,237,0.0,0.0,96,0.00,,,0.01,weatherlink.com 1.10,2013-05-10 09:58:00,
2013-05-10 06:13:00,54.3,53.0,29.92,WSW,238,0.0,1.0,96,0.00,,,0.01,weatherlink.com 1.10,2013-05-10 10:13:00,
2013-05-10 06:28:00,54.2,53.0,29.91,SW,226,0.0,1.0,96,0.00,,,0.01,weatherlink.com 1.10,2013-05-10 10:28:00,
2013-05-10 06:43:00,54.5,54.0,29.92,SW,215,0.0,1.0,97,0.00,,,0.01,weatherlink.com 1.10,2013-05-10 10:43:00,
2013-05-10 06:58:00,54.9,54.0,29.92,SW,226,0.0,1.0,97,0.00,,,0.01,weatherlink.com 1.10,2013-05-10 10:58:00,
2013-05-10 07:13:00,55.4,55.0,29.93,SW,226,0.0,0.0,97,0.00,,,0.01,weatherlink.com 1.10,2013-05-10 11:13:00,
2013-05-10 07:28:00,56.0,55.0,29.93,SW,228,0.0,0.0,97,0.00,,,0.01,weatherlink.com 1.10,2013-05-10 11:28:00,
2013-05-10 07:43:00,56.6,56.0,29.93,SW,232,0.0,2.0,97,0.00,,,0.01,weatherlink.com 1.10,2013-05-10 11:43:00,
2013-05-10 07:58:00,57.5,57.0,29.94,East,99,0.0,3.0,97,0.00,,,0.01,weatherlink.com 1.10,2013-05-10 11:58:00,
2013-05-10 08:13:00,58.7,58.0,29.93,WSW,257,0.0,2.0,96,0.00,,,0.01,weatherlink.com 1.10,2013-05-10 12:13:00,
2013-05-10 08:28:00,60.6,59.0,29.94,SW,234,0.0,3.0,93,0.00,,,0.01,weatherlink.com 1.10,2013-05-10 12:28:00,
2013-05-10 08:44:00,62.2,59.0,29.94,SSW,213,1.0,3.0,88,0.00,,,0.01,weatherlink.com 1.10,2013-05-10 12:44:00,
2013-05-10 08:59:00,63.8,59.0,29.93,WSW,249,0.0,4.0,83,0.00,,,0.01,weatherlink.com 1.10,2013-05-10 12:59:00,
2013-05-10 09:14:00,65.1,59.0,29.93,West,260,1.0,3.0,81,0.00,,,0.01,weatherlink.com 1.10,2013-05-10 13:14:00,
2013-05-10 09:29:00,66.7,59.0,29.93,ESE,102,1.0,2.0,77,0.00,,,0.01,weatherlink.com 1.10,2013-05-10 13:29:00,
2013-05-10 09:44:00,67.1,59.0,29.93,WNW,284,2.0,3.0,75,0.00,,,0.01,weatherlink.com 1.10,2013-05-10 13:44:00,
2013-05-10 09:59:00,68.4,60.0,29.93,West,273,2.0,4.0,74,0.00,,,0.01,weatherlink.com 1.10,2013-05-10 13:59:00,
2013-05-10 10:14:00,69.2,59.0,29.93,WNW,296,2.0,3.0,70,0.00,,,0.01,weatherlink.com 1.10,2013-05-10 14:14:00,
2013-05-10 10:29:00,70.3,60.0,29.93,NW,316,0.0,3.0,70,0.00,,,0.01,weatherlink.com 1.10,2013-05-10 14:29:00,
2013-05-10 10:44:00,70.9,58.0,29.93,NW,314,2.0,2.0,65,0.00,,,0.01,weatherlink.com 1.10,2013-05-10 14:44:00,
2013-05-10 10:59:00,71.5,58.0,29.93,East,92,1.0,5.0,63,0.00,,,0.01,weatherlink.com 1.10,2013-05-10 14:59:00,
2013-05-10 11:14:00,72.4,58.0,29.93,WSW,249,1.0,4.0,60,0.00,,,0.01,weatherlink.com 1.10,2013-05-10 15:14:00,
2013-05-10 11:29:00,73.6,58.0,29.93,NW,313,2.0,4.0,58,0.00,,,0.01,weatherlink.com 1.10,2013-05-10 15:29:00,
2013-05-10 11:44:00,74.2,57.0,29.93,ESE,107,2.0,5.0,56,0.00,,,0.01,weatherlink.com 1.10,2013-05-10 15:44:00,
2013-05-10 11:59:00,75.7,58.0,29.93,West,259,2.0,3.0,54,0.00,,,0.01,weatherlink.com 1.10,2013-05-10 15:59:00,
2013-05-10 12:14:00,76.3,57.0,29.93,WNW,300,2.0,3.0,52,0.00,,,0.01,weatherlink.com 1.10,2013-05-10 16:14:00,
2013-05-10 12:29:00,75.6,57.0,29.93,SSW,200,0.0,5.0,52,0.00,,,0.01,weatherlink.com 1.10,2013-05-10 16:29:00,
2013-05-10 12:44:00,77.1,55.0,29.92,SE,140,1.0,4.0,47,0.00,,,0.01,weatherlink.com 1.10,2013-05-10 16:44:00,
2013-05-10 12:59:00,77.4,56.0,29.91,SW,233,1.0,6.0,48,0.00,,,0.01,weatherlink.com 1.10,2013-05-10 16:59:00,
2013-05-10 13:14:00,77.7,55.0,29.91,WNW,292,1.0,6.0,46,0.00,,,0.01,weatherlink.com 1.10,2013-05-10 17:14:00,
2013-05-10 13:29:00,78.9,56.0,29.90,West,269,5.0,6.0,45,0.00,,,0.01,weatherlink.com 1.10,2013-05-10 17:29:00,
2013-05-10 13:59:00,80.2,56.0,29.90,NW,307,2.0,4.0,43,0.00,,,0.01,weatherlink.com 1.10,2013-05-10 17:59:00,
2013-05-10 14:14:00,78.7,55.0,29.90,SW,225,1.0,6.0,44,0.00,,,0.01,weatherlink.com 1.10,2013-05-10 18:14:00,
2013-05-10 14:29:00,79.3,55.0,29.89,ESE,123,0.0,3.0,43,0.00,,,0.01,weatherlink.com 1.10,2013-05-10 18:29:00,
2013-05-10 14:45:00,79.7,54.0,29.89,WSW,251,0.0,3.0,41,0.00,,,0.01,weatherlink.com 1.10,2013-05-10 18:45:00,
2013-05-10 15:00:00,79.3,54.0,29.89,SW,215,2.0,3.0,42,0.00,,,0.01,weatherlink.com 1.10,2013-05-10 19:00:00,
2013-05-10 15:15:00,79.6,54.0,29.89,ESE,118,0.0,2.0,41,0.00,,,0.01,weatherlink.com 1.10,2013-05-10 19:15:00,
2013-05-10 15:30:00,80.6,54.0,29.90,West,281,3.0,7.0,40,0.00,,,0.01,weatherlink.com 1.10,2013-05-10 19:30:00,
2013-05-10 15:45:00,80.3,53.0,29.89,ESE,113,2.0,2.0,39,0.00,,,0.01,weatherlink.com 1.10,2013-05-10 19:45:00,
2013-05-10 16:00:00,79.1,58.0,29.89,ESE,112,3.0,7.0,48,0.00,,,0.01,weatherlink.com 1.10,2013-05-10 20:00:00,
2013-05-10 16:15:00,77.1,58.0,29.89,ESE,123,0.0,6.0,52,0.00,,,0.01,weatherlink.com 1.10,2013-05-10 20:15:00,
2013-05-10 16:30:00,75.6,59.0,29.89,NNE,23,1.0,4.0,56,0.00,,,0.01,weatherlink.com 1.10,2013-05-10 20:30:00,
2013-05-10 16:45:00,75.7,59.0,29.89,ESE,117,2.0,5.0,56,0.00,,,0.01,weatherlink.com 1.10,2013-05-10 20:45:00,
2013-05-10 17:00:00,75.8,58.0,29.89,SE,125,0.0,3.0,55,0.00,,,0.01,weatherlink.com 1.10,2013-05-10 21:00:00,
2013-05-10 17:15:00,75.7,59.0,29.89,East,80,0.0,4.0,56,0.00,,,0.01,weatherlink.com 1.10,2013-05-10 21:15:00,
2013-05-10 17:30:00,75.7,59.0,29.89,ESE,115,2.0,5.0,57,0.00,,,0.01,weatherlink.com 1.10,2013-05-10 21:30:00,
2013-05-10 17:45:00,76.0,60.0,29.88,ENE,58,4.0,5.0,58,0.00,,,0.01,weatherlink.com 1.10,2013-05-10 21:45:00,
2013-05-10 18:00:00,75.9,59.0,29.88,ESE,108,0.0,5.0,57,0.00,,,0.01,weatherlink.com 1.10,2013-05-10 22:00:00,
2013-05-10 18:15:00,75.7,59.0,29.87,SE,146,0.0,3.0,57,0.00,,,0.01,weatherlink.com 1.10,2013-05-10 22:15:00,
2013-05-10 18:30:00,75.9,58.0,29.87,ESE,109,3.0,5.0,55,0.00,,,0.01,weatherlink.com 1.10,2013-05-10 22:30:00,
2013-05-10 18:45:00,75.2,59.0,29.88,SE,143,2.0,2.0,57,0.00,,,0.01,weatherlink.com 1.10,2013-05-10 22:45:00,
2013-05-10 19:00:00,74.6,59.0,29.88,ESE,115,2.0,2.0,59,0.00,,,0.01,weatherlink.com 1.10,2013-05-10 23:00:00,
2013-05-10 19:15:00,74.1,59.0,29.89,SE,125,0.0,3.0,60,0.00,,,0.01,weatherlink.com 1.10,2013-05-10 23:15:00,
2013-05-10 19:30:00,73.7,59.0,29.89,SSE,157,0.0,3.0,61,0.00,,,0.01,weatherlink.com 1.10,2013-05-10 23:30:00,
2013-05-10 19:45:00,73.4,58.0,29.89,ESE,111,2.0,4.0,58,0.00,,,0.01,weatherlink.com 1.10,2013-05-10 23:45:00,
2013-05-10 20:00:00,72.8,57.0,29.89,SE,132,2.0,4.0,58,0.00,,,0.01,weatherlink.com 1.10,2013-05-11 00:00:00,
2013-05-10 20:15:00,72.2,57.0,29.89,ESE,107,0.0,4.0,59,0.00,,,0.01,weatherlink.com 1.10,2013-05-11 00:15:00,
2013-05-10 20:30:00,71.4,56.0,29.90,ESE,123,1.0,4.0,58,0.00,,,0.01,weatherlink.com 1.10,2013-05-11 00:30:00,
2013-05-10 20:45:00,70.9,56.0,29.89,ESE,116,1.0,5.0,59,0.00,,,0.01,weatherlink.com 1.10,2013-05-11 00:45:00,
2013-05-10 21:00:00,70.2,56.0,29.90,SSE,161,1.0,2.0,60,0.00,,,0.01,weatherlink.com 1.10,2013-05-11 01:00:00,
2013-05-10 21:15:00,69.4,56.0,29.90,ESE,113,0.0,2.0,62,0.00,,,0.01,weatherlink.com 1.10,2013-05-11 01:15:00,
2013-05-10 21:30:00,68.6,56.0,29.91,East,92,0.0,1.0,64,0.00,,,0.01,weatherlink.com 1.10,2013-05-11 01:30:00,
2013-05-10 21:45:00,68.0,56.0,29.91,East,84,0.0,2.0,65,0.00,,,0.01,weatherlink.com 1.10,2013-05-11 01:45:00,
2013-05-10 22:00:00,67.3,55.0,29.91,East,100,0.0,2.0,66,0.00,,,0.01,weatherlink.com 1.10,2013-05-11 02:00:00,
2013-05-10 22:15:00,67.1,56.0,29.90,ESE,116,0.0,3.0,67,0.00,,,0.01,weatherlink.com 1.10,2013-05-11 02:15:00,
2013-05-10 22:30:00,67.0,56.0,29.90,South,184,1.0,2.0,68,0.00,,,0.01,weatherlink.com 1.10,2013-05-11 02:30:00,
2013-05-10 22:45:00,67.1,56.0,29.90,ENE,69,0.0,5.0,67,0.00,,,0.01,weatherlink.com 1.10,2013-05-11 02:45:00,
2013-05-10 23:00:00,67.1,56.0,29.90,East,94,2.0,2.0,67,0.00,,,0.01,weatherlink.com 1.10,2013-05-11 03:00:00,
2013-05-10 23:15:00,66.6,56.0,29.89,East,100,0.0,3.0,68,0.00,,,0.01,weatherlink.com 1.10,2013-05-11 03:15:00,
2013-05-10 23:30:00,66.1,56.0,29.90,WNW,289,0.0,1.0,69,0.00,,,0.01,weatherlink.com 1.10,2013-05-11 03:30:00,
2013-05-10 23:45:00,65.9,55.0,29.90,SSW,199,0.0,3.0,69,0.00,,,0.01,weatherlink.com 1.10,2013-05-11 03:45:00,